Weather History for Grand Island, NE

Change the Weather History Date:

Thursday, July 4, 2013

  Actual Average Record
Temperature  
Mean Temperature 77 °F 76 °F  
Max Temperature 92 °F 88 °F 109 °F (1936)
Min Temperature 61 °F 64 °F 48 °F (1997)
Degree Days  
Heating Degree Days 0 0  
Month to date heating degree days 0 0  
Since 1 June heating degree days 21 24  
Since 1 July heating degree days 0 0  
Cooling Degree Days 12 11  
Month to date cooling degree days 30 44  
Year to date cooling degree days 384 322  
Since 1 June cooling degree days 289 257  
Growing Degree Days 26 (Base 50)    
Moisture  
Dew Point 53 °F    
Average Humidity 52    
Maximum Humidity 78    
Minimum Humidity 25    
Precipitation  
Precipitation 0.00 in 0.12 in 2.56 in (1902)
Month to date precipitation 0.03 0.48  
Year to date precipitation 15.03 14.73  
Snow  
Snow 0.00 in 0.00 in - ()
Month to date snowfall 0.0 0.0  
Since 1 June snowfall 0.0 0.0  
Since 1 July snowfall 0.0 0.0  
Snow Depth 0.00 in    
Sea Level Pressure  
Sea Level Pressure 29.89 in    
Wind  
Wind Speed 14 mph (South)    
Max Wind Speed 21 mph    
Max Gust Speed 28 mph    
Visibility 10 miles    
Events      
T = Trace of Precipitation, MM = Missing Value Source: NWS Daily Summary

Daily Weather History Graph

Daily Weather History Graph

Search for Another Location

Airport:

Trip Planner

Search our weather history database for the weather conditions in past years. The results will help you decide how hot, cold, wet, or windy it might be!

Date:

Astronomy

Jul. 04, 2013 Rise Set
Actual Time 6:06 AM CDT 9:08 PM CDT
Civil Twilight 5:33 AM CDT 9:41 PM CDT
Nautical Twilight 4:51 AM CDT 10:23 PM CDT
Astronomical Twilight 4:01 AM CDT 11:13 PM CDT
Moon 3:25 AM CDT (7/4) 6:13 PM CDT (7/4)
Length of Visible Light 16h 08m
Length of Day
15h 01m
Waning Crescent, 11% of the Moon is Illuminated
Jul 4
Waning Crescent
Jul 8
New
Jul 15
First Quarter
Jul 22
Full
Jul 29
Last Quarter

Hourly Weather History & Observations

Time (CDT) Temp. Heat Index Dew Point Humidity Pressure Visibility Wind Dir Wind Speed Gust Speed Precip Events Conditions
12:53 AM 69.1 °F - 51.1 °F 53% 29.94 in 10.0 mi South 9.2 mph - N/A   Mostly Cloudy
1:53 AM 66.0 °F - 52.0 °F 60% 29.93 in 10.0 mi South 8.1 mph - N/A   Partly Cloudy
2:53 AM 66.0 °F - 51.1 °F 59% 29.93 in 10.0 mi South 9.2 mph - N/A   Scattered Clouds
3:53 AM 64.0 °F - 52.0 °F 65% 29.92 in 10.0 mi South 8.1 mph - N/A   Partly Cloudy
4:53 AM 62.1 °F - 52.0 °F 70% 29.93 in 10.0 mi South 6.9 mph - N/A   Partly Cloudy
5:53 AM 61.0 °F - 53.1 °F 75% 29.93 in 10.0 mi South 6.9 mph - N/A   Partly Cloudy
6:53 AM 63.0 °F - 52.0 °F 67% 29.94 in 10.0 mi South 11.5 mph - N/A   Clear
7:53 AM 68.0 °F - 52.0 °F 56% 29.93 in 10.0 mi South 15.0 mph 20.7 mph N/A   Clear
8:53 AM 71.1 °F - 53.1 °F 53% 29.93 in 10.0 mi South 16.1 mph 26.5 mph N/A   Clear
9:53 AM 75.9 °F - 53.1 °F 45% 29.93 in 10.0 mi South 20.7 mph 26.5 mph N/A   Clear
10:53 AM 79.0 °F - 54.0 °F 42% 29.92 in 10.0 mi South 18.4 mph - N/A   Clear
11:53 AM 82.0 °F 81.3 °F 54.0 °F 38% 29.91 in 10.0 mi South 18.4 mph 23.0 mph N/A   Clear
12:53 PM 84.9 °F 83.2 °F 53.1 °F 33% 29.89 in 10.0 mi South 17.3 mph 26.5 mph N/A   Clear
1:53 PM 87.1 °F 85.1 °F 54.0 °F 32% 29.88 in 10.0 mi South 18.4 mph 25.3 mph N/A   Clear
2:53 PM 89.1 °F 86.7 °F 53.1 °F 29% 29.86 in 10.0 mi South 16.1 mph 24.2 mph N/A   Clear
3:53 PM 91.0 °F - 52.0 °F 26% 29.85 in 10.0 mi SSE 15.0 mph 21.9 mph N/A   Clear
4:53 PM 91.0 °F - 50.0 °F 24% 29.84 in 10.0 mi South 13.8 mph 23.0 mph N/A   Clear
5:53 PM 90.0 °F - 50.0 °F 25% 29.83 in 10.0 mi South 17.3 mph 23.0 mph N/A   Clear
6:53 PM 89.1 °F - 51.1 °F 27% 29.82 in 10.0 mi South 13.8 mph 20.7 mph N/A   Clear
7:53 PM 82.9 °F 82.0 °F 55.0 °F 38% 29.82 in 10.0 mi SSE 13.8 mph 21.9 mph N/A   Clear
8:53 PM 80.1 °F 80.1 °F 55.0 °F 42% 29.82 in 10.0 mi SSE 13.8 mph - N/A   Clear
9:53 PM 77.0 °F - 55.9 °F 48% 29.83 in 10.0 mi SSE 15.0 mph - N/A   Clear
10:53 PM 75.0 °F - 54.0 °F 48% 29.84 in 10.0 mi SSE 13.8 mph 21.9 mph N/A   Clear
11:53 PM 75.9 °F - 53.1 °F 45% 29.84 in 10.0 mi SSE 16.1 mph 24.2 mph N/A   Partly Cloudy